Regional Weather Roundup
Issued by NWS

Home | Current Version | Previous Version | Graphics & Text | Print | Product List | Glossary On
Versions: 1 2 3 4 5 6 7 8 9 10 11 12 13 14 15 16 17 18 19 20 21 22 23 24 25 26 27 28 29 30 31 32 33 34 35 36 37 38 39 40 41 42 43 44 45 46 47 48 49 50
629
ASUS45 KABQ 141201
RWRNM
NEW MEXICO REGIONAL WEATHER ROUNDUP
NATIONAL WEATHER SERVICE ALBUQUERQUE NM
500 AM MST THU DEC 14 2017

NOTE: "FAIR" MEANS FEW OR NO CLOUDS BELOW 12,000 FEET AGL WITH NO
       SIGNIFICANT WEATHER OR OBSTRUCTIONS TO VISION.

      THIS PRODUCT IS RELEASED AS TWO VERSIONS.  ONE VERSION NEAR
      THE TOP OF THE HOUR CONTAINING PRELIMINARY DATA FROM ALBUQUERQUE
      AND OTHER STATIONS.  A FINAL VERSION WITH ADDITIONAL DATA IS
      ISSUED ABOUT 10 MINUTES AFTER THE HOUR.

NMZ501-503-504-510>518-141300-
NORTHWEST PLATEAU/NORTHCENTRAL MOUNTAINS

CITY           SKY/WX    TMP DP  RH WIND       PRES   REMARKS
FARMINGTON     FAIR      28   7  41 SW8       29.97S WCI  20
6HR MIN TEMP:  23; 6HR MAX TEMP:  30;

LOS ALAMOS     FAIR      36   6  28 S10G17    30.01S WCI  28
SANTA FE       FAIR      38  10  31 SE14      30.00S WCI  30
6HR MIN TEMP:  26; 6HR MAX TEMP:  39;

TAOS           FAIR      36  11  35 SE16      30.02R WCI  26
ANGEL FIRE     FAIR      21  13  72 CALM      30.07R

$$
NMZ402-403-502-505>509-141300-
WESTCENTRAL MOUNTAINS/SOUTHWEST MOUNTAINS

CITY           SKY/WX    TMP DP  RH WIND       PRES   REMARKS
GALLUP         FAIR      19  -1  41 NE3       30.02R
6HR MIN TEMP:  17; 6HR MAX TEMP:  24;

GRANTS         FAIR      17  -1  46 CALM      30.03F
SILVER CITY    FAIR      32  16  50 W7        30.01S WCI  26

$$
NMZ407-409-411-412-141300-
SOUTHERN DESERTS

CITY           SKY/WX    TMP DP  RH WIND       PRES   REMARKS
DEMING         FAIR      31  15  52 W7        29.99S WCI  24
6HR MIN TEMP:  30; 6HR MAX TEMP:  37;

LAS CRUCES     FAIR      33  22  64 NE5       29.99S WCI  28
HOLLOMAN AFB   FAIR      25   1  36 NW3       30.01R
ALAMOGORDO     FAIR      30   9  40 N5        29.99R WCI  25
T OR C         FAIR      34   6  31 N3        29.99R
6HR MIN TEMP:  32; 6HR MAX TEMP:  42;


$$
NMZ519>523-141300-
CENTRAL VALLEYS/CENTRAL HIGHLANDS

CITY           SKY/WX    TMP DP  RH WIND       PRES   REMARKS
ALBUQUERQUE    MOCLDY    29   7  39 CALM      30.00F
6HR MIN TEMP:  26; 6HR MAX TEMP:  36;

MORIARTY ARPT  FAIR      10  -1  61 CALM      30.06R
6HR MIN TEMP:  10; 6HR MAX TEMP:  18;

CLINES CORNERS FAIR      26   6  42 E12       30.05S WCI  16
6HR MIN TEMP:  25; 6HR MAX TEMP:  34;

BELEN          FAIR      21   2  44 NW6       30.01S WCI  13
6HR MIN TEMP:  17; 6HR MAX TEMP:  29;

SOCORRO        FAIR      26   2  35 NW8       30.01S WCI  18
6HR MIN TEMP:  24; 6HR MAX TEMP:  33;


$$
NMZ524>526-539-540-141300-
SOUTHCENTRAL MOUNTAINS

CITY           SKY/WX    TMP DP  RH WIND       PRES   REMARKS
RUIDOSO        FAIR      32   3  29 NW3       30.06R

$$
NMZ527>531-141300-
NORTHEAST HIGHLANDS/NORTHEAST PLAINS

CITY           SKY/WX    TMP DP  RH WIND       PRES   REMARKS
LAS VEGAS      FAIR      24  10  55 NE9       30.09R WCI  14
6HR MIN TEMP:  24; 6HR MAX TEMP:  34;

RATON          FAIR      34  12  40 N12       30.08R WCI  25
6HR MIN TEMP:  29; 6HR MAX TEMP:  35;

CLAYTON        FAIR      28  15  58 N9        30.10S WCI  19
6HR MIN TEMP:  28; 6HR MAX TEMP:  41;


$$
NMZ532>537-141300-
EASTCENTRAL PLAINS

CITY           SKY/WX    TMP DP  RH WIND       PRES   REMARKS
SANTA ROSA     FAIR      29  14  53 N8        30.07R WCI  21
TUCUMCARI      FAIR      31  15  52 N12       30.08R WCI  22
6HR MIN TEMP:  25; 6HR MAX TEMP:  31;

CANNON AFB     NOT AVBL
CLOVIS AIRPORT FAIR      27  15  61 N10       30.07R WCI  17

$$
NMZ028-029-538-141300-
SOUTHEAST PLAINS

CITY           SKY/WX    TMP DP  RH WIND       PRES   REMARKS
ROSWELL        FAIR      28   9  44 N5        30.03R WCI  23
6HR MIN TEMP:  27; 6HR MAX TEMP:  36;

ARTESIA        FAIR      27   7  43 N8        30.04R WCI  18
CARLSBAD       FAIR      36  18  48 NW10      30.01R WCI  28
6HR MIN TEMP:  33; 6HR MAX TEMP:  43;

HOBBS          FAIR      27  14  59 N8        30.02R WCI  18


$$




USA.gov is the U.S. government's official web portal to all federal, state and local government web resources and services.